El Poble-sec, Spain

6:45 AM CEST on August 17, 2017 (GMT +0200)
El Poble-sec

Weather History for 08181 - August, 2013

Change the Weather History Date:

Tuesday, August 27, 2013

  Actual Average Record
Temperature  
Mean Temperature 72 °F -  
Max Temperature 80 °F 76 °F - ()
Min Temperature 64 °F 63 °F - ()
Cooling Degree Days 7    
Growing Degree Days 22 (Base 50)    
Moisture  
Dew Point 63 °F    
Average Humidity 70    
Maximum Humidity 88    
Minimum Humidity 48    
Precipitation  
Precipitation 0.04 in 0.10 in - ()
Sea Level Pressure  
Sea Level Pressure 29.94 in    
Wind  
Wind Speed 8 mph ()    
Max Wind Speed 27 mph    
Max Gust Speed -    
Visibility 8.3 miles    
Events Rain    
T = Trace of Precipitation, MM = Missing Value Source: Averaged Metar Reports

Daily Weather History Graph

Daily Weather History Graph

Search for Another Location

Airport or City:

Trip Planner

Search our weather history database for the weather conditions in past years. The results will help you decide how hot, cold, wet, or windy it might be!

Date:

Astronomy

Aug. 27, 2013 Rise Set
Actual Time 7:13 AM CEST 8:32 PM CEST
Civil Twilight 6:44 AM CEST 9:01 PM CEST
Nautical Twilight 6:09 AM CEST 9:35 PM CEST
Astronomical Twilight 5:33 AM CEST 10:11 PM CEST
Moon No Moon Rise 2:01 PM CEST (8/27)
Length of Visible Light 14h 16m
Length of Day
13h 19m
Waning Gibbous, 60% of the Moon is Illuminated
Aug 27
Waning Gibbous
Aug 28
Last Quarter
Sep 5
New
Sep 12
First Quarter
Sep 19
Full

Hourly Weather History & Observations

Time (CEST) Temp. Dew Point Humidity Pressure Visibility Wind Dir Wind Speed Gust Speed Precip Events Conditions
12:00 AM 68.0 °F 64.4 °F 88% 29.92 in 6.2 mi NNW 5.8 mph - N/A   Partly Cloudy
12:30 AM 68.0 °F 62.6 °F 83% 29.92 in 6.2 mi NNW 5.8 mph - N/A   Partly Cloudy
1:00 AM 68.0 °F 62.6 °F 83% 29.92 in 6.2 mi NW 6.9 mph - N/A   Partly Cloudy
1:30 AM 68.0 °F 62.6 °F 83% 29.92 in 6.2 mi NW 6.9 mph - N/A   Partly Cloudy
2:00 AM 67 °F 64 °F 85% 29.93 in 13 mi North 9.2 mph - -   Scattered Clouds
2:00 AM 68.0 °F 62.6 °F 83% 29.92 in 6.2 mi NNW 6.9 mph - N/A   Partly Cloudy
2:30 AM 66.2 °F 62.6 °F 88% 29.92 in 6.2 mi NW 6.9 mph - N/A   Partly Cloudy
3:00 AM 66.2 °F 62.6 °F 88% 29.92 in 6.2 mi NW 6.9 mph - N/A   Partly Cloudy
3:30 AM 66.2 °F 62.6 °F 88% 29.92 in 6.2 mi NNW 8.1 mph - N/A   Partly Cloudy
4:00 AM 66.2 °F 62.6 °F 88% 29.92 in 6.2 mi NNW 9.2 mph - N/A   Partly Cloudy
4:30 AM 66.2 °F 62.6 °F 88% 29.92 in 6.2 mi NW 8.1 mph - N/A   Scattered Clouds
5:30 AM 66.2 °F 60.8 °F 83% 29.92 in 6.2 mi NNW 5.8 mph - N/A   Scattered Clouds
6:00 AM 66.2 °F 60.8 °F 83% 29.92 in 6.2 mi NNW 9.2 mph - N/A   Scattered Clouds
6:30 AM 66.2 °F 60.8 °F 83% 29.92 in 6.2 mi NNW 9.2 mph - N/A   Scattered Clouds
7:00 AM 66.2 °F 60.8 °F 83% 29.92 in 6.2 mi NNW 6.9 mph - N/A   Scattered Clouds
7:30 AM 66.2 °F 60.8 °F 83% 29.95 in 6.2 mi NNW 6.9 mph - N/A   Partly Cloudy
8:00 AM 66 °F 62 °F 85% 29.95 in 13 mi North 6.9 mph - -   Scattered Clouds
8:00 AM 66.2 °F 60.8 °F 83% 29.95 in 6.2 mi Variable 5.8 mph - N/A   Partly Cloudy
8:30 AM 68.0 °F 60.8 °F 78% 29.95 in 6.2 mi NNW 6.9 mph - N/A   Partly Cloudy
9:00 AM 68.0 °F 60.8 °F 78% 29.95 in 6.2 mi NW 5.8 mph - N/A   Partly Cloudy
9:30 AM 69.8 °F 62.6 °F 78% 29.95 in 6.2 mi NNW 5.8 mph - N/A   Partly Cloudy
10:00 AM 71.6 °F 60.8 °F 69% 29.95 in 6.2 mi NW 5.8 mph - N/A   Partly Cloudy
10:30 AM 75.2 °F 60.8 °F 61% 29.95 in 6.2 mi WNW 3.5 mph - N/A   Partly Cloudy
11:00 AM 75.2 °F 60.8 °F 61% 29.98 in 6.2 mi West 1.2 mph - N/A   Partly Cloudy
11:30 AM 77.0 °F 62.6 °F 61% 29.95 in 6.2 mi South 5.8 mph - N/A   Partly Cloudy
12:00 PM 77.0 °F 62.6 °F 61% 29.95 in 6.2 mi SSE 5.8 mph - N/A   Partly Cloudy
12:30 PM 77.0 °F 62.6 °F 61% 29.95 in 6.2 mi South 5.8 mph - N/A   Partly Cloudy
1:00 PM 77.0 °F 62.6 °F 61% 29.95 in 6.2 mi South 6.9 mph - N/A   Partly Cloudy
1:30 PM 77.0 °F 62.6 °F 61% 29.95 in 6.2 mi SSE 6.9 mph - N/A   Partly Cloudy
2:00 PM 79 °F 63 °F 48% 29.96 in 19 mi South 9.2 mph - -   Scattered Clouds
2:00 PM 77.0 °F 62.6 °F 61% 29.95 in 6.2 mi South 8.1 mph - N/A   Partly Cloudy
2:30 PM 78.8 °F 60.8 °F 54% 29.95 in 6.2 mi South 9.2 mph - N/A   Partly Cloudy
3:00 PM 78.8 °F 60.8 °F 54% 29.95 in 6.2 mi South 10.4 mph - N/A   Partly Cloudy
3:30 PM 78.8 °F 60.8 °F 54% 29.95 in 6.2 mi South 11.5 mph - N/A   Partly Cloudy
4:00 PM 80 °F 64 °F 48% 29.95 in 19 mi SSW 26.8 mph - -  
4:00 PM 78.8 °F 60.8 °F 54% 29.95 in 6.2 mi SSW 13.8 mph - N/A   Partly Cloudy
4:30 PM 78.8 °F 62.6 °F 57% 29.95 in 6.2 mi SSW 16.1 mph - N/A   Partly Cloudy
5:00 PM 80 °F 64 °F 48% 29.94 in 19 mi SSW 15.0 mph - -   Scattered Clouds
5:00 PM 78.8 °F 60.8 °F 54% 29.95 in 6.2 mi SSW 15.0 mph - N/A   Partly Cloudy
5:30 PM 78.8 °F 62.6 °F 57% 29.92 in 6.2 mi SSW 12.7 mph - N/A   Partly Cloudy
6:00 PM 80 °F 65 °F 50% 29.94 in 19 mi SSW 11.5 mph - -  
6:00 PM 78.8 °F 62.6 °F 57% 29.92 in 6.2 mi South 12.7 mph - N/A   Partly Cloudy
6:30 PM 78.8 °F 62.6 °F 57% 29.95 in 6.2 mi South 11.5 mph - N/A   Scattered Clouds
7:00 PM 78 °F 66 °F 57% 29.94 in 19 mi SSW 10.4 mph - -  
7:00 PM 77.0 °F 62.6 °F 61% 29.92 in 6.2 mi South 10.4 mph - N/A   Scattered Clouds
7:30 PM 77.0 °F 64.4 °F 65% 29.92 in 6.2 mi South 10.4 mph - N/A   Mostly Cloudy
8:00 PM 77 °F 66 °F 61% 29.95 in 19 mi South 9.2 mph - -   Mostly Cloudy
8:00 PM 77.0 °F 64.4 °F 65% 29.95 in 6.2 mi South 9.2 mph - N/A   Mostly Cloudy
8:30 PM 77.0 °F 64.4 °F 65% 29.95 in 6.2 mi South 9.2 mph - N/A   Mostly Cloudy
9:00 PM 76 °F 66 °F 65% 29.96 in 19 mi SSE 11.2 mph - -  
9:00 PM 77.0 °F 64.4 °F 65% 29.95 in 6.2 mi SSE 4.6 mph - N/A   Mostly Cloudy
9:30 PM 75.2 °F 64.4 °F 69% 29.95 in 6.2 mi East 5.8 mph - N/A   Mostly Cloudy
10:00 PM 74 °F 68 °F 77% 29.98 in 15 mi ENE 17.9 mph - - Rain Rain
10:00 PM 75.2 °F 66.2 °F 73% 29.98 in 6.2 mi ENE 4.6 mph - N/A Rain Light Rain
10:30 PM 75.2 °F 68.0 °F 78% 29.98 in 6.2 mi ENE 8.1 mph - N/A   Light Drizzle
11:00 PM 73 °F 68 °F 80% 29.99 in 16 mi NE 22.4 mph - - Rain Light Drizzle
11:00 PM 73.4 °F 66.2 °F 78% 29.98 in 6.2 mi ENE 6.9 mph - N/A   Mostly Cloudy
11:30 PM 73.4 °F 66.2 °F 78% 29.98 in 6.2 mi ENE 9.2 mph - N/A   Mostly Cloudy